This demonstration page uses our WeatherBlox Daily Observations layout. Learn more.

Left ArrowRight Arrow

40.92945, -100.16068

Hourly Observations for November 30, 2020

Temp ( °F °C ) Dew Point ( °F °C ) Humidity (%) Winds ( mph kmh ) Pressure ( in mb ) Visibility ( mi km ) Precip ( " mm )
12:15 am 00:15 Clear 13 -10.7 6 -14.6 73 73 W 7 11 30.65 1038 10 16.0934 0 0
12:35 am 00:35 Clear 12 -11.2 5 -15 74 74 W 6 9 30.66 1038 10 16.0934 0 0
12:55 am 00:55 Clear 12 -10.9 5 -15.1 71 71 WNW 9 15 30.64 1038 10 16.0934 0 0
1:15 am 01:15 Clear 12 -11 4 -15.3 71 71 WNW 9 15 30.64 1038 10 16.0934 0 0
1:35 am 01:35 Clear 13 -10.8 5 -15.2 70 70 WNW 10 17 30.63 1037 10 16.0934 0 0
1:55 am 01:55 Clear 13 -10.5 5 -14.8 71 71 WNW 8 13 30.62 1037 10 16.0934 0 0
2:15 am 02:15 Clear 13 -10.6 5 -15 70 70 WNW 8 13 30.61 1037 10 16.0934 0 0
2:35 am 02:35 Clear 13 -10.8 4 -15.4 69 69 WNW 9 15 30.6 1036 10 16.0934 0 0
2:55 am 02:55 Clear 12 -11.3 4 -15.7 70 70 WNW 7 11 30.61 1036 10 16.0934 0 0
3:15 am 03:15 Clear 11 -11.8 3 -15.9 72 72 WNW 6 9 30.6 1036 10 16.0934 0 0
3:35 am 03:35 Clear 9 -12.6 3 -16.2 75 75 W 6 9 30.6 1036 10 16.0934 0 0
3:55 am 03:55 Clear 9 -13 3 -15.9 79 79 W 9 15 30.61 1036 10 16.0934 0 0
4:15 am 04:15 Clear 10 -12.2 4 -15.4 77 77 W 8 13 30.6 1036 10 16.0934 0 0
4:35 am 04:35 Clear 11 -11.8 4 -15.5 74 74 WNW 10 17 30.59 1036 10 16.0934 0 0
4:55 am 04:55 Clear 10 -12.2 4 -15.7 75 75 W 6 9 30.59 1036 10 16.0934 0 0
5:15 am 05:15 Clear 9 -12.7 3 -16 77 77 WNW 8 13 30.58 1036 10 16.0934 0 0
5:35 am 05:35 Clear 8 -13.1 3 -16.3 77 77 W 7 11 30.58 1035 10 16.0934 0 0
5:55 am 05:55 Clear 7 -13.7 2 -16.5 80 80 W 3 6 30.58 1036 10 16.0934 0 0
6:15 am 06:15 Clear 8 -13.6 2 -16.5 79 79 WNW 3 6 30.56 1035 10 16.0934 0 0
6:35 am 06:35 Clear 8 -13.4 3 -16.2 80 80 Calm 30.55 1035 10 16.0934 0 0
6:55 am 06:55 Clear 8 -13.5 3 -16.2 80 80 WNW 3 6 30.54 1034 10 16.0934 0 0
7:15 am 07:15 Clear 8 -13.5 2 -16.5 78 78 WNW 5 7 30.54 1034 10 16.0934 0 0
7:35 am 07:35 Clear 7 -13.9 2 -16.6 80 80 Calm 30.54 1034 10 16.0934 0 0
7:55 am 07:55 Sunny 8 -13.2 3 -16 80 80 W 3 6 30.53 1034 10 16.0934 0 0
8:15 am 08:15 Sunny 9 -12.6 4 -15.6 79 79 W 6 9 30.51 1033 10 16.0934 0 0
8:35 am 08:35 Sunny 12 -11.2 6 -14.5 77 77 WNW 5 7 30.49 1032 10 16.0934 0 0
8:55 am 08:55 Sunny 14 -9.9 7 -14.1 72 72 WNW 5 7 30.47 1032 10 16.0934 0 0
9:15 am 09:15 Sunny 17 -8.2 9 -13 69 69 WNW 3 6 30.44 1031 10 16.0934 0 0
9:35 am 09:35 Sunny 21 -6.2 11 -11.6 66 66 NW 3 6 30.41 1030 10 16.0934 0 0
9:55 am 09:55 Sunny 24 -4.5 11 -11.4 59 59 Calm 30.38 1029 10 16.0934 0 0
10:15 am 10:15 Sunny 27 -2.7 14 -10.2 57 57 SSW 3 6 30.36 1028 10 16.0934 0 0
10:35 am 10:35 Sunny 31 -0.4 16 -9 53 53 SW 3 6 30.32 1027 10 16.0934 0 0
10:55 am 10:55 Sunny 39 3.7 15 -9.6 38 38 SSW 7 11 30.27 1025 10 16.0934 0 0
11:15 am 11:15 Sunny 43 5.9 13 -10.5 30 30 SW 12 19 30.24 1024 10 16.0934 0 0
11:35 am 11:35 Sunny 43 6.1 12 -10.9 29 29 SSW 14 22 30.22 1023 10 16.0934 0 0
11:55 am 11:55 Sunny 43 6.1 16 -9.1 33 33 SSW 16 26 30.21 1023 10 16.0934 0 0
12:15 pm 12:15 Sunny 44 6.6 16 -8.9 32 32 SSW 12 19 30.17 1022 10 16.0934 0 0
12:35 pm 12:35 Sunny 45 7.1 16 -9 31 31 SSW 13 20 30.15 1021 10 16.0934 0 0
12:55 pm 12:55 Sunny 46 7.6 16 -9.1 30 30 SSW 17 28 30.13 1020 10 16.0934 0 0
1:15 pm 13:15 Sunny 45 7.4 15 -9.2 30 30 SSW 17 28 30.12 1020 10 16.0934 0 0
1:35 pm 13:35 Sunny 46 7.7 16 -9.1 30 30 SSW 14 22 30.09 1019 10 16.0934 0 0
1:55 pm 13:55 Sunny 46 8 16 -9 29 29 S 13 20 30.08 1019 10 16.0934 0 0
2:15 pm 14:15 Sunny 47 8.2 16 -9 29 29 SSW 14 22 30.07 1018 10 16.0934 0 0
2:35 pm 14:35 Sunny 48 9.1 16 -8.9 27 27 SSW 12 19 30.05 1018 10 16.0934 0 0
2:55 pm 14:55 Sunny 49 9.5 16 -8.9 27 27 SSW 13 20 30.03 1017 10 16.0934 0 0
3:15 pm 15:15 Sunny 50 10 16 -8.8 26 26 SSW 10 17 30.01 1016 10 16.0934 0 0
3:35 pm 15:35 Sunny 51 10.4 17 -8.4 26 26 SW 9 15 30 1016 10 16.0934 0 0
3:55 pm 15:55 Sunny 51 10.5 17 -8.1 26 26 SW 5 7 30 1016 10 16.0934 0 0
4:15 pm 16:15 Sunny 50 10.2 18 -8 27 27 SW 3 6 30 1016 10 16.0934 0 0
4:35 pm 16:35 Sunny 48 9 18 -8 29 29 WSW 3 6 30 1016 10 16.0934 0 0
4:55 pm 16:55 Sunny 44 6.7 17 -8.6 33 33 WSW 5 7 30.02 1017 10 16.0934 0 0
5:15 pm 17:15 Clear 41 5.2 17 -8.5 37 37 Calm 30.04 1017 10 16.0934 0 0
5:35 pm 17:35 Clear 42 5.6 17 -8.6 36 36 Calm 30.03 1017 10 16.0934 0 0
5:55 pm 17:55 Clear 36 2.3 16 -8.7 44 44 Calm 30.05 1018 10 16.0934 0 0
6:15 pm 18:15 Clear 34 0.9 16 -9 48 48 E 3 6 30.07 1018 10 16.0934 0 0
6:35 pm 18:35 Clear 33 0.7 16 -8.9 49 49 E 6 9 30.07 1018 10 16.0934 0 0
6:55 pm 18:55 Clear 34 0.9 17 -8.1 51 51 ESE 5 7 30.06 1018 10 16.0934 0 0
7:15 pm 19:15 Clear 31 -0.4 16 -9.1 52 52 SE 3 6 30.07 1018 10 16.0934 0 0
7:35 pm 19:35 Clear 30 -1.1 16 -8.7 57 57 SSE 5 7 30.07 1018 10 16.0934 0 0
7:55 pm 19:55 Clear 33 0.5 17 -8.5 51 51 SSE 8 13 30.05 1018 10 16.0934 0 0
8:15 pm 20:15 Clear 32 -0.1 15 -9.3 50 50 S 7 11 30.06 1018 10 16.0934 0 0
8:35 pm 20:35 Clear 32 -0.2 15 -9.4 50 50 SSE 6 9 30.06 1018 10 16.0934 0 0
8:55 pm 20:55 Clear 31 -0.7 15 -9.2 53 53 SSE 8 13 30.06 1018 10 16.0934 0 0
9:15 pm 21:15 Clear 33 0.3 16 -8.9 50 50 E 6 9 30.04 1017 10 16.0934 0 0
9:35 pm 21:35 Clear 28 -2.2 15 -9.3 59 59 ESE 6 9 30.05 1018 10 16.0934 0 0
9:55 pm 21:55 Clear 26 -3.4 14 -9.9 61 61 ESE 3 6 30.07 1018 10 16.0934 0 0
10:15 pm 22:15 Clear 24 -4.7 15 -9.7 68 68 SE 5 7 30.09 1019 10 16.0934 0 0
10:35 pm 22:35 Clear 25 -3.7 15 -9.5 64 64 E 6 9 30.06 1018 10 16.0934 0 0
10:55 pm 22:55 Clear 22 -5.4 14 -9.9 71 71 E 3 6 30.08 1019 10 16.0934 0 0
11:15 pm 23:15 Clear 23 -5.2 14 -10 69 69 Calm 30.09 1019 10 16.0934 0 0
11:35 pm 23:35 Clear 21 -6 13 -10.5 71 71 E 5 7 30.09 1019 10 16.0934 0 0
11:55 pm 23:55 Clear 21 -6.1 14 -10.1 74 74 E 6 9 30.09 1019 10 16.0934 0 0

Powered by AerisWeather